Location: Duncanville
(32.6518°N, 96.9083°W)
Time: 10:22:09
(UTC+00:00)

IGS 5A - Pass Details

Date: 11 February 2026
Orbit: 551 x 554 km, 97.4° (Epoch: 8 January)

Event Time Altitude Azimuth Distance (km) Brightness Sun altitude
Rises 12:22:52 0° 6° (N) 2,731 6.8 -11.4°
Reaches altitude 10° 12:25:02 10° 2° (N) 1,833 5.9 -10.9°
Maximum altitude 12:28:54 55° 284° (WNW) 665 3.4 -10.1°
Drops below altitude 10° 12:32:46 10° 206° (SSW) 1,822 5.8 -9.3°
Sets 12:34:54 0° 202° (SSW) 2,712 6.7 -8.9°
